EW0890 Weather Reports


time (UTC)temp
C
wind
direction
speed
KPH
gust
KPH
rain 1hr
cm
rain 24hr
cm
rain mn
cm
humidity
%
barometer
mb
20221203053101 10 154 25.7 35.4 0.00 0.00 0.00 91 1009.7
20221203051600 10 154 27.4 41.8 0.00 0.00 0.00 91 1009.5
20221203050108 10 154 27.4 41.8 0.00 0.00 0.00 91 1009.3
20221203044605 10 154 27.4 40.2 0.00 0.00 0.00 91 1009.0
20221203043104 10 154 27.4 41.8 0.00 0.00 0.00 91 1008.9
20221203041601 10 154 27.4 40.2 0.00 0.00 0.00 91 1008.8
20221203040106 9 154 25.7 41.8 0.00 0.00 0.00 91 1008.7
20221203034600 9 154 32.2 41.8 0.00 0.00 0.00 91 1008.4
20221203033110 9 154 30.6 46.7 0.00 0.00 0.00 90 1008.1
20221203031556 9 154 30.6 46.7 0.00 0.00 0.00 90 1008.1
20221203030106 9 154 32.2 49.9 0.00 0.00 0.00 90 1007.9
20221203024638 9 154 32.2 49.9 0.00 0.00 0.00 89 1008.0
20221203023059 9 154 29.0 51.5 0.00 0.00 0.00 89 1007.9
20221203021600 9 154 38.6 57.9 0.00 0.00 0.00 89 1007.6
20221203020058 9 154 33.8 53.1 0.00 0.00 0.00 88 1007.2
20221203014605 9 154 32.2 46.7 0.00 0.00 0.00 87 1007.2
20221203013059 9 141 30.6 49.9 0.00 0.00 0.00 86 1007.2
20221203011558 9 139 32.2 49.9 0.00 0.00 0.00 85 1006.9
20221203010108 9 136 33.8 43.5 0.00 0.00 0.00 85 1006.9
20221203004558 9 135 29.0 43.5 0.00 0.00 0.00 84 1007.4
20221203003055 9 135 37.0 49.9 0.00 0.00 0.00 83 1006.5
20221203001558 10 134 29.0 49.9 0.00 0.00 0.00 82 1006.7
20221203000109 10 134 35.4 53.1 0.00 0.00 0.00 81 1006.2
20221202234606 10 134 37.0 46.7 0.00 0.00 0.00 80 1006.1
20221202233056 10 134 40.2 57.9 0.00 0.00 0.00 79 1006.4
20221202231607 10 134 33.8 57.9 0.00 0.00 0.00 77 1006.2
20221202230114 10 133 35.4 49.9 0.00 0.00 0.00 74 1006.1
20221202224558 10 134 33.8 54.7 0.00 0.00 0.00 72 1005.8
20221202223101 10 134 35.4 53.1 0.00 0.00 0.00 70 1005.9
20221202221602 11 134 33.8 56.3 0.00 0.00 0.00 70 1005.8
20221202220118 11 134 35.4 51.5 0.00 0.00 0.00 69 1006.0
20221202214602 11 134 32.2 48.3 0.00 0.00 0.00 67 1006.0
20221202213142 11 134 27.4 45.1 0.00 0.00 0.00 65 1006.4
20221202211605 11 134 30.6 45.1 0.00 0.00 0.00 65 1006.5
20221202210104 11 134 33.8 51.5 0.00 0.00 0.00 64 1006.6
20221202204605 11 134 27.4 49.9 0.00 0.00 0.00 65 1006.8
20221202203102 11 134 29.0 46.7 0.00 0.00 0.00 64 1007.2
20221202201606 11 133 30.6 45.1 0.00 0.00 0.00 63 1007.4
20221202200106 11 134 30.6 43.5 0.00 0.00 0.00 62 1007.8
20221202194601 10 134 29.0 41.8 0.00 0.00 0.00 60 1008.1
20221202193101 10 134 30.6 49.9 0.00 0.00 0.00 59 1008.3
20221202191600 10 136 35.4 54.7 0.00 0.00 0.00 57 1008.7
20221202190058 11 138 32.2 45.1 0.00 0.00 0.00 56 1009.0
20221202184613 10 131 29.0 45.1 0.00 0.00 0.00 59 1009.4
20221202183102 10 131 32.2 40.2 0.00 0.00 0.00 58 1009.6
20221202181603 9 131 27.4 38.6 0.00 0.00 0.00 59 1010.0
20221202180101 9 131 25.7 41.8 0.00 0.00 0.00 59 1010.4
20221202174600 8 130 25.7 35.4 0.00 0.00 0.00 61 1010.5
20221202173107 8 131 25.7 37.0 0.00 0.00 0.00 61 1010.9
20221202171603 8 131 27.4 38.6 0.00 0.00 0.00 61 1011.4
20221202170138 7 131 25.7 38.6 0.00 0.00 0.00 62 1012.1
20221202164605 7 131 24.1 37.0 0.00 0.00 0.00 63 1012.5
20221202163101 7 131 27.4 40.2 0.00 0.00 0.00 63 1013.0
20221202161608 6 130 27.4 38.6 0.00 0.00 0.00 65 1013.2
20221202160102 6 131 27.4 37.0 0.00 0.00 0.00 68 1013.8
20221202154603 5 131 27.4 35.4 0.00 0.00 0.00 70 1014.1
20221202153105 4 130 27.4 37.0 0.00 0.00 0.00 71 1014.1
20221202151601 4 131 24.1 37.0 0.00 0.00 0.00 73 1014.3
20221202150105 3 130 27.4 40.2 0.00 0.00 0.00 73 1014.4
20221202144556 3 133 29.0 38.6 0.00 0.00 0.00 72 1014.7
20221202143120 3 133 25.7 37.0 0.00 0.00 0.00 73 1014.7
20221202141601 3 134 22.5 38.6 0.00 0.00 0.00 73 1015.2
20221202140058 2 134 24.1 32.2 0.00 0.00 0.00 73 1015.5
20221202134556 2 134 22.5 33.8 0.00 0.00 0.00 72 1015.6
20221202133057 2 134 24.1 35.4 0.00 0.00 0.00 72 1016.0
20221202131614 2 134 22.5 33.8 0.00 0.00 0.00 72 1016.3
20221202130110 2 134 19.3 27.4 0.00 0.00 0.00 72 1016.3
20221202124606 2 134 17.7 27.4 0.00 0.00 0.00 70 1016.5
20221202123059 2 134 20.9 29.0 0.00 0.00 0.00 68 1016.8
20221202121559 2 134 17.7 25.7 0.00 0.00 0.00 69 1016.9
20221202120109 2 134 17.7 29.0 0.00 0.00 0.00 70 1017.1
20221202114557 2 134 20.9 27.4 0.00 0.00 0.00 70 1017.8
20221202113127 2 134 20.9 33.8 0.00 0.00 0.00 70 1017.6
20221202111616 2 134 22.5 30.6 0.00 0.00 0.00 70 1017.5
20221202110114 2 134 20.9 29.0 0.00 0.00 0.00 70 1017.7
20221202104601 2 134 20.9 29.0 0.00 0.00 0.00 70 1017.5
20221202103116 2 134 20.9 30.6 0.00 0.00 0.00 69 1017.5
20221202101557 2 134 19.3 32.2 0.00 0.00 0.00 69 1017.7
20221202100105 2 135 20.9 27.4 0.00 0.00 0.00 69 1018.1
20221202094600 2 136 19.3 24.1 0.00 0.00 0.00 70 1018.4
20221202093101 2 135 16.1 24.1 0.00 0.00 0.00 70 1018.6
20221202091603 2 135 14.5 25.7 0.00 0.00 0.00 71 1018.8
20221202090100 1 135 16.1 25.7 0.00 0.00 0.00 71 1019.3
20221202084601 1 135 17.7 25.7 0.00 0.00 0.00 72 1019.6
20221202083102 1 135 14.5 24.1 0.00 0.00 0.00 72 1019.4
20221202081602 1 135 16.1 27.4 0.00 0.00 0.00 71 1019.6
20221202080107 1 135 17.7 25.7 0.00 0.00 0.00 71 1019.7
20221202074559 1 135 17.7 24.1 0.00 0.00 0.00 70 1020.1
20221202073104 1 135 12.9 22.5 0.00 0.00 0.00 70 1020.5
20221202071556 1 136 12.9 20.9 0.00 0.00 0.00 69 1020.8
20221202070112 1 135 17.7 24.1 0.00 0.00 0.00 69 1020.6
20221202064601 1 135 17.7 29.0 0.00 0.00 0.00 69 1020.7
20221202063102 1 135 19.3 29.0 0.00 0.00 0.00 70 1020.6
20221202061600 1 135 19.3 27.4 0.00 0.00 0.00 70 1020.8
20221202060110 1 135 19.3 32.2 0.00 0.00 0.00 71 1021.3
20221202054557 1 135 22.5 29.0 0.00 0.00 0.00 72 1021.4